Date String (YYYY-MM-DD hh:mm:ss) UTC,Instrument flags,absolute air pressure of the measurement (hPa),sample flow rate (lpm),inlet stack bypass flow (lpm),air temperature of the measurement (°C),ambient temperature measured by the external sensor (°C),aerosol sample conditioner tube jacket temperature (°C),OPC LED temperature (°C),internal box temperature (°C),relative humidity of the measurement (%),span deviation,mass concentration of particles derived from Lorenz-Mie calculation of OPC scattering (μg/m³),mass concentration of particles derived from Lorenz-Mie calculation of OPC scattering (μg/m³),mass concentration of particles derived from Lorenz-Mie calculation of OPC scattering (μg/m³)
DateTimeUTC,F1_M11,P_M11,Q1_M11,Q2_M11,T1_M11,T2_M11,T3_M11,T4_M11,T5_M11,U1_M11,ZSPAN_M11,X0_M11,X2_M11,X1_M11
2023-10-08 05:00:00,SystemResetWarning,0835.2,5.00,000.00,029.0,027.5,000.0,037.4,030.6,13.6,0000.0,0010.72,0003.84,0003.14
2023-10-08 05:01:00,SystemResetWarning,0835.2,5.00,000.00,029.0,027.5,000.0,037.4,030.6,13.5,0000.0,0010.67,0003.88,0003.15
2023-10-08 05:02:00,SystemResetWarning,0835.2,5.00,000.00,029.0,027.5,000.0,037.4,030.6,13.5,0000.0,0010.33,0003.92,0003.16
2023-10-08 05:03:00,SystemResetWarning,0835.2,5.00,000.00,029.0,027.5,000.0,037.4,030.6,13.5,0000.0,0011.16,0003.93,0003.16
2023-10-08 05:04:00,SystemResetWarning,0835.1,5.01,000.00,029.0,027.5,000.0,037.4,030.6,13.5,0000.0,0011.29,0003.90,0003.16
2023-10-08 05:05:00,SystemResetWarning,0835.1,5.01,000.00,029.0,027.5,000.0,037.4,030.6,13.5,0000.0,0011.47,0003.87,0003.16
2023-10-08 05:06:00,SystemResetWarning,0835.1,5.00,000.00,029.0,027.6,000.0,037.4,030.6,13.5,0000.0,0011.71,0003.84,0003.17
2023-10-08 05:07:00,SystemResetWarning,0835.1,5.00,000.00,029.0,027.6,000.0,037.4,030.6,13.5,0000.0,0011.85,0003.86,0003.17
2023-10-08 05:08:00,SystemResetWarning,0835.1,4.99,000.00,029.0,027.6,000.0,037.4,030.6,13.5,0000.0,0012.19,0003.87,0003.16
2023-10-08 05:09:00,SystemResetWarning,0835.2,5.00,000.00,029.0,027.6,000.0,037.4,030.6,13.5,0000.0,0012.00,0003.83,0003.16
2023-10-08 05:10:00,SystemResetWarning,0835.1,5.00,000.00,029.0,027.6,000.0,037.4,030.6,13.5,0000.0,0011.63,0003.81,0003.17
2023-10-08 05:11:00,SystemResetWarning,0835.2,5.01,000.00,029.0,027.6,000.0,037.4,030.6,13.5,0000.0,0011.26,0003.78,0003.17
2023-10-08 05:12:00,SystemResetWarning,0835.2,5.01,000.00,029.0,027.6,000.0,037.4,030.6,13.5,0000.0,0010.63,0003.73,0003.17
2023-10-08 05:13:00,SystemResetWarning,0835.2,5.00,000.00,029.0,027.6,000.0,037.4,030.6,13.5,0000.0,0010.58,0003.74,0003.18
2023-10-08 05:14:00,SystemResetWarning,0835.2,5.00,000.00,029.0,027.6,000.0,037.4,030.6,13.5,0000.0,0009.58,0003.72,0003.19
2023-10-08 05:15:00,SystemResetWarning,0835.2,5.00,000.00,029.0,027.6,000.0,037.4,030.6,13.5,0000.0,0010.38,0003.74,0003.19
2023-10-08 05:16:00,SystemResetWarning,0835.2,4.99,000.00,029.0,027.6,000.0,037.4,030.6,13.5,0000.0,0010.13,0003.76,0003.19
2023-10-08 05:17:00,SystemResetWarning,0835.2,5.00,000.00,029.0,027.6,000.0,037.5,030.6,13.5,0000.0,0009.94,0003.76,0003.18
2023-10-08 05:18:00,SystemResetWarning,0835.2,5.01,000.00,029.0,027.6,000.0,037.5,030.6,13.5,0000.0,0009.79,0003.74,0003.18
2023-10-08 05:19:00,SystemResetWarning,0835.2,5.00,000.00,029.0,027.6,000.0,037.5,030.6,13.4,0000.0,0009.18,0003.75,0003.20
2023-10-08 05:20:00,SystemResetWarning,0835.2,5.00,000.00,029.0,027.6,000.0,037.5,030.6,13.4,0000.0,0009.21,0003.74,0003.20
2023-10-08 05:21:00,SystemResetWarning,0835.2,5.00,000.00,029.0,027.5,000.0,037.5,030.6,13.5,0000.0,0009.04,0003.70,0003.19
2023-10-08 05:22:00,SystemResetWarning,0835.2,5.00,000.00,029.0,027.5,000.0,037.5,030.6,13.4,0000.0,0008.18,0003.67,0003.18
2023-10-08 05:23:00,SystemResetWarning,0835.2,4.99,000.00,029.0,027.6,000.0,037.5,030.6,13.4,0000.0,0008.12,0003.66,0003.18
2023-10-08 05:24:00,SystemResetWarning,0835.1,5.00,000.00,029.0,027.5,000.0,037.5,030.6,13.4,0000.0,0007.99,0003.63,0003.17
2023-10-08 05:25:00,SystemResetWarning,0835.1,5.00,000.00,029.0,027.5,000.0,037.5,030.6,13.4,0000.0,0007.94,0003.63,0003.17
2023-10-08 05:26:00,SystemResetWarning,0835.2,5.01,000.00,029.0,027.5,000.0,037.5,030.6,13.4,0000.0,0006.87,0003.64,0003.19
2023-10-08 05:27:00,SystemResetWarning,0835.1,5.01,000.00,029.0,027.5,000.0,037.5,030.6,13.4,0000.0,0006.73,0003.66,0003.20
2023-10-08 05:28:00,SystemResetWarning,0835.1,5.00,000.00,029.0,027.5,000.0,037.5,030.6,13.4,0000.0,0007.18,0003.66,0003.20
2023-10-08 05:29:00,SystemResetWarning,0835.1,5.00,000.00,029.0,027.5,000.0,037.5,030.6,13.4,0000.0,0007.40,0003.66,0003.19
2023-10-08 05:30:00,SystemResetWarning,0835.1,5.00,000.00,029.0,027.5,000.0,037.5,030.6,13.4,0000.0,0007.19,0003.60,0003.18
2023-10-08 05:31:00,SystemResetWarning,0835.1,5.00,000.00,029.0,027.5,000.0,037.5,030.6,13.4,0000.0,0007.31,0003.58,0003.18
2023-10-08 05:32:00,SystemResetWarning,0835.1,5.00,000.00,029.0,027.5,000.0,037.5,030.6,13.4,0000.0,0007.25,0003.57,0003.19
2023-10-08 05:33:00,SystemResetWarning,0835.1,5.00,000.00,029.0,027.5,000.0,037.5,030.6,13.4,0000.0,0007.37,0003.60,0003.20
2023-10-08 05:34:00,SystemResetWarning,0835.1,5.00,000.00,029.0,027.5,000.0,037.5,030.6,13.4,0000.0,0007.39,0003.60,0003.20
2023-10-08 05:35:00,SystemResetWarning,0835.1,5.00,000.00,029.0,027.5,000.0,037.5,030.6,13.4,0000.0,0007.49,0003.61,0003.21
2023-10-08 05:36:00,SystemResetWarning,0835.1,5.01,000.00,029.0,027.6,000.0,037.5,030.6,13.4,0000.0,0008.24,0003.64,0003.22
2023-10-08 05:37:00,SystemResetWarning,0835.0,5.00,000.00,029.0,027.5,000.0,037.5,030.6,13.4,0000.0,0008.64,0003.64,0003.23
2023-10-08 05:38:00,SystemResetWarning,0835.1,5.00,000.00,029.0,027.5,000.0,037.5,030.6,13.4,0000.0,0008.67,0003.65,0003.22
2023-10-08 05:39:00,SystemResetWarning,0835.0,4.99,000.00,029.0,027.5,000.0,037.5,030.6,13.4,0000.0,0008.38,0003.65,0003.24
2023-10-08 05:40:00,SystemResetWarning,0835.0,5.00,000.00,029.0,027.5,000.0,037.5,030.6,13.4,0000.0,0008.31,0003.65,0003.25
2023-10-08 05:41:00,SystemResetWarning,0835.0,4.99,000.00,029.0,027.5,000.0,037.5,030.6,13.4,0000.0,0008.40,0003.68,0003.26
2023-10-08 05:42:00,SystemResetWarning,0835.0,5.00,000.00,029.0,027.5,000.0,037.5,030.6,13.4,0000.0,0008.21,0003.68,0003.27
2023-10-08 05:43:00,SystemResetWarning,0835.0,5.00,000.00,029.0,027.5,000.0,037.5,030.6,13.4,0000.0,0008.49,0003.67,0003.26
2023-10-08 05:44:00,SystemResetWarning,0835.0,5.00,000.00,029.0,027.5,000.0,037.5,030.6,13.4,0000.0,0008.47,0003.67,0003.26
2023-10-08 05:45:00,SystemResetWarning,0835.0,5.01,000.00,029.0,027.5,000.0,037.5,030.6,13.4,0000.0,0008.56,0003.68,0003.26
2023-10-08 05:46:00,SystemResetWarning,0835.0,5.00,000.00,029.0,027.5,000.0,037.5,030.6,13.4,0000.0,0008.61,0003.71,0003.25
2023-10-08 05:47:00,SystemResetWarning,0835.0,4.99,000.00,029.0,027.5,000.0,037.5,030.6,13.4,0000.0,0008.14,0003.67,0003.25
2023-10-08 05:48:00,SystemResetWarning,0835.0,4.99,000.00,029.0,027.5,000.0,037.5,030.6,13.5,0000.0,0008.02,0003.63,0003.23
2023-10-08 05:49:00,SystemResetWarning,0835.0,5.01,000.00,029.0,027.5,000.0,037.5,030.6,13.5,0000.0,0007.89,0003.59,0003.22
2023-10-08 05:50:00,SystemResetWarning,0834.9,5.00,000.00,029.0,027.5,000.0,037.5,030.6,13.5,0000.0,0007.94,0003.60,0003.22
2023-10-08 05:51:00,SystemResetWarning,0834.9,5.01,000.00,029.0,027.5,000.0,037.5,030.6,13.5,0000.0,0008.46,0003.64,0003.22
2023-10-08 05:52:00,SystemResetWarning,0834.9,5.00,000.00,029.0,027.5,000.0,037.5,030.6,13.5,0000.0,0008.93,0003.65,0003.21
2023-10-08 05:53:00,SystemResetWarning,0834.9,5.00,000.00,029.0,027.5,000.0,037.5,030.6,13.5,0000.0,0009.24,0003.67,0003.21
2023-10-08 05:54:00,SystemResetWarning,0834.9,5.00,000.00,029.0,027.5,000.0,037.5,030.6,13.5,0000.0,0009.52,0003.70,0003.23
2023-10-08 05:55:00,SystemResetWarning,0834.9,4.99,000.00,029.0,027.5,000.0,037.5,030.6,13.5,0000.0,0009.81,0003.69,0003.23
2023-10-08 05:56:00,SystemResetWarning,0834.9,5.00,000.00,029.0,027.5,000.0,037.5,030.6,13.5,0000.0,0009.94,0003.68,0003.23
2023-10-08 05:57:00,SystemResetWarning,0834.9,5.00,000.00,029.0,027.5,000.0,037.5,030.6,13.4,0000.0,0010.04,0003.65,0003.23
2023-10-08 05:58:00,SystemResetWarning,0834.9,5.00,000.00,029.0,027.5,000.0,037.5,030.6,13.4,0000.0,0009.99,0003.64,0003.23
2023-10-08 05:59:00,SystemResetWarning,0834.9,5.01,000.00,029.0,027.5,000.0,037.5,030.6,13.4,0000.0,0009.24,0003.64,0003.23
